Regional Weather Roundup
Issued by NWS Spokane, WA

Home | Current Version | Previous Version | Text Only | Print | Product List | Glossary On
Versions: 1 2 3 4 5 6 7 8 9 10 11 12 13 14 15 16 17 18 19 20 21 22 23 24 25 26 27 28 29 30 31 32 33 34 35 36 37 38 39 40 41 42 43 44 45 46 47 48 49 50
000
NZUS01 KOTX 200910
RWROTX
EASTERN WASHINGTON/NORTHERN IDAHO ROUNDUP
NATIONAL WEATHER SERVICE, SPOKANE WA
200 AM PDT SUN APR 20 2014

Note: "fair" indicated few or no clouds below 12,000 feet with no
significant weather and/or obstructions to visibility.

...NORTHEAST WASHINGTON AND NORTHERN IDAHO PANHANDLE...

CITY           SKY/WX    TMP DP  RH WIND       PRES   REMARKS
SPOKANE INTL   CLEAR     41  31  67 SW13      30.09R
SPOKANE DOWNTO CLEAR     44  32  62 SW10      30.11R
COEUR D ALENE  CLOUDY    43  34  70 S10G16    30.11R
DEER PARK      CLEAR     42  30  62 S14       30.08R
SANDPOINT      MOCLDY    45  32  61 SW9       30.04S

...SOUTHEAST WASHINGTON AND SOUTHERN IDAHO PANHANDLE...

CITY           SKY/WX    TMP DP  RH WIND       PRES   REMARKS
WALLA WALLA    CLEAR     47  35  63 S16       30.22R
PULLMAN/MOSCOW MOCLDY    42  34  73 SW17      30.18R
LEWISTON       PTCLDY    50  29  44 W10       30.18R
LOWELL           N/A     45  43  93 CALM      30.21R

...COLUMBIA BASIN...

CITY           SKY/WX    TMP DP  RH WIND       PRES   REMARKS
EPHRATA        CLEAR     37  27  67 SW10      30.12R
MOSES LAKE     CLEAR     48  31  51 SW18G25   30.14R
TRI CITIES     CLEAR     49  36  61 SW18      30.19R
HERMISTON      CLEAR     46  37  71 SW9       30.22R
PENDLETON      CLEAR     43  35  73 SW9       30.21R

...EAST SLOPES CASCADES...

CITY           SKY/WX    TMP DP  RH WIND       PRES   REMARKS
THE DALLES     PTCLDY    48  39  71 NW3       30.25R
YAKIMA         CLEAR     40  30  67 NW7       30.17R
ELLENSBURG     CLEAR     39  31  72 NW7       30.15R
WENATCHEE      CLEAR     44  31  60 N5        30.12R
OMAK           MOCLDY    44  30  57 S10       30.05R

...SOUTHERN BRITISH COLUMBIA...

CITY           SKY/WX    TMP DP  RH WIND       PRES   REMARKS
PENTICTON      CLOUDY    52  28  40 SW8       30.03R
CRANBROOK      MOCLDY    43  32  65 W6        29.93R

...WESTERN MONTANA...

CITY           SKY/WX    TMP DP  RH WIND       PRES   REMARKS
MISSOULA       CLOUDY    43  33  68 N5        30.10R

...NEIGHBORING CITIES...

CITY           SKY/WX    TMP DP  RH WIND       PRES   REMARKS
SEATTLE        MOCLDY    46  42  86 S13G22    30.22R
CALGARY        MOCLDY    41  23  48 W15       29.75R



USA.gov is the U.S. government's official web portal to all federal, state and local government web resources and services.